Skip Page Navigation
NASA JPL Caltech
NASA Logo - Jet Propulsion Laboratory + View the NASA Portal
+ Center for Near-Earth Object Studies
JPL Home Earth Solar System Stars & Galaxies Technology
JPL Solar System Dynamics
BODIES ORBITS EPHEMERIDES TOOLS PHYSICAL DATA DISCOVERY FAQ SITE MAP
JPL Small-Body Database Browser
Search: [ help ]  
(2020 VZ6)
Classification: Apollo [NEO]          SPK-ID: 54096685
Ephemeris | Orbit Diagram | Orbital Elements | Mission Design | Physical Parameters | Close-Approach Data ]

[ hide orbit diagram ]

For accurate long-term ephemerides, please instead use our Horizons system.This orbit viewer was implemented using two-body methods, and hence should not be used for determining accurate long-term trajectories (over several years or decades) or planetary encounter circumstances.


Orbital Elements at Epoch 2459000.5 (2020-May-31.0) TDB
Reference: JPL 5 (heliocentric ecliptic J2000)
 Element Value Uncertainty (1-sigma)   Units 
e .5386527155879893 3.4766e-05  
a 2.039784176411502 0.00014873 au
q .9410488905740361 2.3012e-06 au
i .7976875590990273 3.6699e-05 deg
node 243.5380902652405 7.1491e-05 deg
peri 217.8133470736636 0.00017719 deg
M 289.1328513451534 0.0078238 deg
tp 2459209.967771816983
(2020-Dec-26.46777182)
0.00021668 TDB
period 1064.081161517943
2.91
0.11638
0.0003186
d
yr
n .338320057735492 3.7002e-05 deg/d
Q 3.138519462248968 0.00022884 au
  Orbit Determination Parameters
   # obs. used (total)      76  
   data-arc span      21 days  
   first obs. used      2020-11-14  
   last obs. used      2020-12-05  
   planetary ephem.      DE431  
   SB-pert. ephem.      SB431-N16  
   condition code      5  
   norm. resid. RMS      .44729  
   source      ORB  
   producer      Otto Matic  
   solution date      2020-Dec-06 05:25:14  

Additional Information
 Earth MOID = .0019811 au 
 Jupiter MOID = 2.05215 au 
 T_jup = 3.606 
[ show covariance matrix ]

Ephemeris | Orbit Diagram | Orbital Elements | Mission Design | Physical Parameters | Close-Approach Data ]

Physical Parameter Table
Parameter Symbol Value Units Sigma Reference Notes
absolute magnitude H 25.095   .27787 5 autocmod 2.8

[ show close-approach data ]
Ephemeris | Orbit Diagram | Orbital Elements | Mission Design | Physical Parameters | Close-Approach Data ]
ABOUT SSD CREDITS/AWARDS PRIVACY/COPYRIGHT GLOSSARY LINKS
FirstGov 2021-Jan-22 10:56 UT
(server date/time)  
NASA Home Page
Site Manager:   Ryan S. Park
Webmaster  Alan B. Chamberlin